When you browse on this site, cookies collect data to enhance your experience and personalize the content and advertising you see.
Visit our Privacy Policy to learn more. By continuing to use the site, you agree to this use of cookies and data.
  • In Österreich
  • Länderverzeichnis
  • Für 7 Tage
  • Wassertemperatur
  • Satellitenkarten
  • Wetterkarte
  • News
  • Widgets
  • user-avatar
    Anmelden

    Stündliche Wetter Salzburg

    Heute, 18 Januar, Freitag

    Zeit Temperatur Niederschläge Wind Luftdruck Luftfeuchtigkeit
    00:00 -7°C° 1.4 mm 2 m/S 618 mmHg 96%
    01:00 -6°C° 1.4 mm 1 m/S 618 mmHg 96%
    02:00 -7°C° 0.8 mm 1 m/S 618 mmHg 96%
    03:00 -7°C° 0.8 mm 1 m/S 618 mmHg 96%
    04:00 -7°C° 0.8 mm 1 m/S 619 mmHg 96%
    05:00 -8°C° 0.7 mm 1 m/S 619 mmHg 96%
    06:00 -8°C° 0.7 mm 1 m/S 619 mmHg 96%
    07:00 -8°C° 0.7 mm 1 m/S 620 mmHg 96%
    08:00 -9°C° 0.2 mm 2 m/S 620 mmHg 95%
    09:00 -9°C° 0.2 mm 2 m/S 620 mmHg 94%
    10:00 -10°C° 0.2 mm 2 m/S 621 mmHg 93%
    11:00 -8°C° 0.1 mm 1 m/S 621 mmHg 91%
    12:00 -8°C° 0.1 mm 1 m/S 621 mmHg 89%
    13:00 -8°C° 0.1 mm 1 m/S 622 mmHg 87%
    14:00 -9°C° 0 mm 1 m/S 621 mmHg 88%
    15:00 -9°C° 0 mm 1 m/S 621 mmHg 90%
    16:00 -10°C° 0 mm 0 m/S 621 mmHg 91%
    17:00 -12°C° 0 mm 1 m/S 621 mmHg 91%
    18:00 -13°C° 0 mm 1 m/S 621 mmHg 91%
    19:00 -15°C° 0 mm 1 m/S 620 mmHg 90%
    20:00 -15°C° 0 mm 1 m/S 620 mmHg 88%
    21:00 -18°C° 0 mm 2 m/S 620 mmHg 85%
    22:00 -18°C° 0 mm 2 m/S 620 mmHg 82%
    23:00 -18°C° 0 mm 2 m/S 620 mmHg 80%

    Morgen, 19 Januar, Samstag

    Zeit Temperatur Niederschläge Wind Luftdruck Luftfeuchtigkeit
    00:00 -18°C° 0 mm 2 m/S 620 mmHg 78%
    01:00 -18°C° 0 mm 2 m/S 620 mmHg 76%
    02:00 -18°C° 0 mm 2 m/S 620 mmHg 76%
    03:00 -18°C° 0 mm 2 m/S 619 mmHg 76%
    04:00 -18°C° 0 mm 2 m/S 619 mmHg 76%
    05:00 -18°C° 0 mm 2 m/S 619 mmHg 77%
    06:00 -17°C° 0 mm 2 m/S 619 mmHg 78%
    07:00 -17°C° 0 mm 2 m/S 619 mmHg 79%
    08:00 -15°C° 0 mm 2 m/S 620 mmHg 81%
    09:00 -14°C° 0 mm 2 m/S 620 mmHg 83%
    10:00 -12°C° 0 mm 2 m/S 621 mmHg 85%
    11:00 -8°C° 0 mm 1 m/S 621 mmHg 84%
    12:00 -7°C° 0 mm 1 m/S 621 mmHg 83%
    13:00 -4°C° 0 mm 1 m/S 621 mmHg 82%
    14:00 -6°C° 0 mm 1 m/S 621 mmHg 85%
    15:00 -6°C° 0 mm 1 m/S 620 mmHg 87%
    16:00 -7°C° 0 mm 1 m/S 620 mmHg 89%
    17:00 -8°C° 0 mm 1 m/S 619 mmHg 88%
    18:00 -9°C° 0 mm 1 m/S 619 mmHg 88%
    19:00 -12°C° 0 mm 2 m/S 619 mmHg 87%
    20:00 -13°C° 0 mm 2 m/S 619 mmHg 86%
    21:00 -13°C° 0 mm 2 m/S 619 mmHg 84%
    22:00 -13°C° 0 mm 2 m/S 619 mmHg 83%
    23:00 -13°C° 0 mm 2 m/S 618 mmHg 82%

    übermorgen, 20 Januar, Sonntag

    Zeit Temperatur Niederschläge Wind Luftdruck Luftfeuchtigkeit
    00:00 -14°C° 0 mm 2 m/S 618 mmHg 81%
    01:00 -14°C° 0 mm 2 m/S 618 mmHg 80%
    02:00 -14°C° 0 mm 2 m/S 618 mmHg 79%
    03:00 -14°C° 0 mm 2 m/S 617 mmHg 78%
    04:00 -14°C° 0 mm 2 m/S 617 mmHg 77%
    05:00 -14°C° 0 mm 2 m/S 617 mmHg 76%
    06:00 -14°C° 0 mm 2 m/S 617 mmHg 75%
    07:00 -14°C° 0 mm 2 m/S 617 mmHg 74%
    08:00 -11°C° 0 mm 1 m/S 618 mmHg 76%
    09:00 -9°C° 0 mm 1 m/S 619 mmHg 78%
    10:00 -7°C° 0 mm 1 m/S 620 mmHg 79%
    11:00 -6°C° 0 mm 1 m/S 620 mmHg 78%
    12:00 -4°C° 0 mm 1 m/S 620 mmHg 78%
    13:00 -4°C° 0 mm 0 m/S 621 mmHg 77%
    14:00 -5°C° 0 mm 0 m/S 620 mmHg 81%
    15:00 -5°C° 0 mm 0 m/S 620 mmHg 85%
    16:00 -6°C° 0 mm 0 m/S 620 mmHg 89%
    17:00 -8°C° 0 mm 0 m/S 620 mmHg 88%
    18:00 -9°C° 0 mm 1 m/S 620 mmHg 87%
    19:00 -10°C° 0 mm 1 m/S 620 mmHg 87%
    20:00 -10°C° 0 mm 1 m/S 620 mmHg 87%
    21:00 -10°C° 0 mm 1 m/S 620 mmHg 86%
    22:00 -11°C° 0 mm 1 m/S 621 mmHg 86%
    23:00 -11°C° 0 mm 1 m/S 621 mmHg 86%

    21 Januar, Montag

    Zeit Temperatur Niederschläge Wind Luftdruck Luftfeuchtigkeit
    00:00 -11°C° 0 mm 1 m/S 621 mmHg 86%
    01:00 -11°C° 0 mm 1 m/S 621 mmHg 87%
    02:00 -11°C° 0 mm 1 m/S 621 mmHg 87%
    03:00 -11°C° 0 mm 1 m/S 621 mmHg 88%
    04:00 -12°C° 0 mm 1 m/S 621 mmHg 88%
    05:00 -12°C° 0 mm 1 m/S 621 mmHg 88%
    06:00 -12°C° 0 mm 1 m/S 621 mmHg 89%
    07:00 -12°C° 0 mm 1 m/S 622 mmHg 89%
    08:00 -11°C° 0 mm 1 m/S 622 mmHg 89%
    09:00 -9°C° 0 mm 1 m/S 623 mmHg 90%
    10:00 -8°C° 0 mm 0 m/S 624 mmHg 90%
    11:00 -7°C° 0 mm 0 m/S 624 mmHg 90%
    12:00 -6°C° 0 mm 0 m/S 624 mmHg 90%
    13:00 -5°C° 0 mm 0 m/S 624 mmHg 90%
    14:00 -4°C° 0 mm 1 m/S 624 mmHg 91%
    15:00 -6°C° 0 mm 1 m/S 624 mmHg 92%
    16:00 -6°C° 0 mm 1 m/S 623 mmHg 94%
    17:00 -8°C° 0 mm 0 m/S 623 mmHg 94%
    18:00 -9°C° 0 mm 0 m/S 623 mmHg 95%
    19:00 -10°C° 0 mm 0 m/S 622 mmHg 96%
    20:00 -11°C° 0 mm 0 m/S 622 mmHg 94%
    21:00 -11°C° 0 mm 1 m/S 622 mmHg 93%
    22:00 -12°C° 0 mm 1 m/S 622 mmHg 91%
    23:00 -12°C° 0 mm 1 m/S 621 mmHg 89%

    22 Januar, Dienstag

    Zeit Temperatur Niederschläge Wind Luftdruck Luftfeuchtigkeit
    00:00 -13°C° 0 mm 1 m/S 621 mmHg 88%
    01:00 -13°C° 0 mm 1 m/S 620 mmHg 86%
    02:00 -13°C° 0 mm 1 m/S 620 mmHg 85%
    03:00 -14°C° 0 mm 1 m/S 619 mmHg 83%
    04:00 -14°C° 0 mm 1 m/S 619 mmHg 82%
    05:00 -14°C° 0 mm 1 m/S 618 mmHg 81%
    06:00 -16°C° 0 mm 2 m/S 618 mmHg 80%
    07:00 -16°C° 0 mm 2 m/S 617 mmHg 79%
    08:00 -14°C° 0 mm 2 m/S 618 mmHg 80%
    09:00 -10°C° 0 mm 1 m/S 618 mmHg 82%
    10:00 -9°C° 0 mm 1 m/S 618 mmHg 83%
    11:00 -7°C° 0 mm 1 m/S 618 mmHg 82%
    12:00 -4°C° 0 mm 1 m/S 617 mmHg 82%
    13:00 -3°C° 0 mm 1 m/S 617 mmHg 82%
    14:00 -3°C° 0 mm 1 m/S 616 mmHg 85%
    15:00 -4°C° 0 mm 1 m/S 615 mmHg 87%
    16:00 -4°C° 0 mm 1 m/S 615 mmHg 90%
    17:00 -6°C° 0 mm 1 m/S 614 mmHg 90%
    18:00 -9°C° 0 mm 2 m/S 613 mmHg 89%
    19:00 -10°C° 0 mm 2 m/S 612 mmHg 89%
    20:00 -10°C° 0 mm 2 m/S 612 mmHg 88%
    21:00 -12°C° 0 mm 2 m/S 611 mmHg 87%
    22:00 -12°C° 0 mm 2 m/S 611 mmHg 87%
    23:00 -12°C° 0 mm 2 m/S 611 mmHg 87%

    23 Januar, Mittwoch

    Zeit Temperatur Niederschläge Wind Luftdruck Luftfeuchtigkeit
    00:00 -12°C° 0 mm 2 m/S 610 mmHg 87%
    01:00 -12°C° 0 mm 2 m/S 610 mmHg 87%
    02:00 -12°C° 0 mm 2 m/S 610 mmHg 87%
    03:00 -12°C° 0 mm 2 m/S 609 mmHg 87%
    04:00 -12°C° 0 mm 2 m/S 609 mmHg 87%
    05:00 -10°C° 0 mm 1 m/S 609 mmHg 87%
    06:00 -11°C° 0 mm 1 m/S 609 mmHg 87%
    07:00 -11°C° 0 mm 1 m/S 609 mmHg 87%
    08:00 -9°C° 0 mm 1 m/S 609 mmHg 88%
    09:00 -8°C° 0 mm 1 m/S 610 mmHg 88%
    10:00 -7°C° 0 mm 0 m/S 610 mmHg 89%
    11:00 -6°C° 0 mm 0 m/S 611 mmHg 90%
    12:00 -4°C° 0 mm 1 m/S 611 mmHg 91%
    13:00 -3°C° 0 mm 1 m/S 611 mmHg 93%
    14:00 -4°C° 0.1 mm 1 m/S 610 mmHg 93%
    15:00 -4°C° 0.1 mm 1 m/S 610 mmHg 94%
    16:00 -4°C° 0.1 mm 1 m/S 610 mmHg 95%
    17:00 -6°C° 0.1 mm 1 m/S 610 mmHg 95%
    18:00 -7°C° 0.1 mm 1 m/S 610 mmHg 95%
    19:00 -8°C° 0.1 mm 0 m/S 610 mmHg 95%
    20:00 -9°C° 0 mm 1 m/S 610 mmHg 93%
    21:00 -10°C° 0 mm 1 m/S 610 mmHg 92%
    22:00 -10°C° 0 mm 1 m/S 610 mmHg 91%
    23:00 -13°C° 0 mm 2 m/S 610 mmHg 90%
    Mehr zeigen